Regional Weather Roundup
Issued by NWS Charleston, SC

Current Version | Previous Version | Graphics & Text | Print | Product List | Glossary On
Versions: 1 2 3 4 5 6 7 8 9 10 11 12 13 14 15 16 17 18 19 20 21 22 23 24 25 26 27 28 29 30 31 32 33 34 35 36 37 38 39 40 41 42 43 44 45 46 47 48 49 50
318
ASUS42 KCHS 251745
RWRCHS

REGIONAL WEATHER ROUNDUP
NATIONAL WEATHER SERVICE CHARLESTON SC
100 PM EDT MON SEP 25 2017

NOTE: "FAIR" INDICATES FEW OR NO CLOUDS BELOW 12,000 FEET WITH NO
SIGNIFICANT WEATHER AND/OR OBSTRUCTIONS TO VISIBILITY.

NOT ALL STATIONS ARE QUALITY CONTROLLED. USE DATA WITH CAUTION...
ESPECIALLY DEWPOINT OBSERVATIONS.

SCZ027-030-031-034>040-042>050-251800-
...SOUTHEAST SOUTH CAROLINA...

CITY           SKY/WX    TMP DP  RH WIND       PRES   REMARKS
N CHARLESTON   PTSUNNY   81  69  67 E6        29.91F
WATERFRONT PRK   N/A     78  70  76 N7        29.76S
JOHNS ISLAND   PTSUNNY   81  70  69 VRB7      29.91S
PINOPOLIS        N/A     75  68  78 NE7       29.86F
MONCKS CORNER  FAIR      77  66  69 N8        29.92F
SUMMERVILLE    FAIR      81  68  65 NE6       29.93F
BEAUFORT MCAS  PTSUNNY   83  69  62 N10       29.93S
BEAUFORT ARPT  FAIR      81  68  65 NE10      29.92S
HILTON HEAD IS MOSUNNY   82  72  69 N8        29.93S
WALTERBORO     CLOUDY    79  64  61 N10       29.94F
ALLENDALE      NOT AVBL

...SOUTHERN MIDLANDS AND PEE DEE...

CITY           SKY/WX    TMP DP  RH WIND       PRES   REMARKS
GEORGETOWN     CLOUDY    72  70  94 N9        29.94S
KINGSTREE      CLOUDY    79  66  65 N7        29.93F
ORANGEBURG     CLOUDY    80  61  52 NE12      29.95F
BARNWELL       FAIR      86  64  48 NE13      29.95F
AIKEN          FAIR      81  59  47 N9        30.01F
MANNING        FAIR      81  61  50 MISG      29.93F
COLUMBIA       PTSUNNY   83  62  49 NE10      29.96F
SUMTER         PTSUNNY   83  61  47 N14       29.93F
FLORENCE       PTSUNNY   81  67  62 NE13      29.95F
MYRTLE BEACH   CLOUDY    74  68  81 N14       29.94S
N MYRTLE BEACH CLOUDY    77  69  76 N12       29.92F

$$

GAZ063-065-086>088-099>101-113>116-118-119-134>141-150-251800-
...SOUTHEAST GEORGIA...

CITY           SKY/WX    TMP DP  RH WIND       PRES   REMARKS
SAVANNAH ARPT  MOSUNNY   86  68  54 NE7       29.92F
HUNTER AAF     SUNNY     84  69  60 N6        29.90F
FORT STEWART   SUNNY     85  65  52 N6        29.91S
STATESBORO     SUNNY     84  62  46 N6        29.94F
SYLVANIA       MOSUNNY   84  69  61 N9        29.95F
CLAXTON        FAIR      86  64  47 N8        29.94F

...CSRA...CENTRAL AND FAR SOUTHEAST GEORGIA...

CITY           SKY/WX    TMP DP  RH WIND       PRES   REMARKS
THOMSON        SUNNY     82  64  53 E9        30.04F
AUGUSTA-BUSH   MOSUNNY   77  63  61 NE12      29.96F
AUGUSTA-DANIEL MOSUNNY   86  61  42 MISG      29.98F
SWAINSBORO     FAIR      82  64  54 N6        29.97F
VIDALIA        SUNNY     86  61  42 N7        29.96F
EASTMAN        FAIR      87  44  21 NE6       29.99F
HAZLEHURST     FAIR      87  42  20 N8        29.94F
ALMA           SUNNY     88  66  48 N8        29.94F HX  90
WAYCROSS       MOSUNNY   87  60  40 CALM      29.93F
JESUP          NOT AVBL
BAXLEY         FAIR      82  61  47 NE6       29.94F
BRUNSWICK      SUNNY     86  61  42 NW7       29.93S
SAINT SIMONS   SUNNY     87  65  47 N8        29.92S

$$

SCZ027-028-034-036>038-045-046-048>050-GAZ119-141-251800-
...LAKE AND SUPPLEMENTAL COASTAL OBSERVATIONS...

STATION/POSITION TIME  TEMP    WIND        PRES    WAVE   SWELL
                       AIR SEA DIR/SP/G            HT/PER HT/PER/DIR
                 (UTC) (F)     (DEG/KT/KT) (MB)    (FT/S) (FT/S/D)
WINYAH BAY       1645   72     350/  7     1013.0F
LAKE MURRAY      1720   81      10/  4/  7 1013.9
ACE BASIN NERRS  1645   80     350/  2     1013.0S
FORT PULASKI     1700   79 81   30/  9/ 11 1013.5
SAPELO ISLAND    1700   84        CALM     1013.0

$$

ANZ835-935-AMZ111-154-330-350-352-354-370-450-454-472-251800-
...C-MAN AND BUOY OBSERVATIONS...

STATION/POSITION TIME  TEMP    WIND        PRES    WAVE   SWELL
                       AIR SEA DIR/SP/G            HT/PER HT/PER/DIR
                 (UTC) (F)     (DEG/KT/KT) (MB)    (FT/S) (FT/S/D)
BUOY 41004       1710   76 81   10/ 17/ 23 1011.5
BUOY 41008       1650   76 80   20/ 10/ 12 1012.8R   5/12   5/120/12
FOLLY BEACH CMAN 1700   77      30/  6/  7 1013.6F
CAPERS NEARSHORE 1708   74 80   30/ 12/ 17 1012.4S
FRIPP NEARSHORE  1708   77      10/ 10/ 14 1018.9F


STATION/POSITION TIME  TEMP    WIND        PRES    WAVE   SWELL
                       AIR SEA DIR/SP/G            HT/PER HT/PER/DIR
                 (UTC) (F)     (DEG/KT/KT) (MB)    (FT/S) (FT/S/D)
5E ST. MARYS GA  1700      81                N/A     6/13   3/110/13
FRYING PAN BUOY  1710   78 82   10/ 21/ 27 1010.4
BUOY 41025       1650   76 77   30/ 23/ 27 1010.3F  12/14  10/150/14
CAPE LOOKOUT NC  1700   78      30/ 26/ 32 1011.2F
BUOY 41002       1650   81 81  360/ 37/ 47  994.3F  21/10  11/110/13
BUOY 41010       1710          340/ 12/ 16 1010.3
ST AUGUSTINE FL  1700   79 82   10/ 12/ 13 1013.1F


$$




USA.gov is the U.S. government's official web portal to all federal, state and local government web resources and services.